[[{"header":{"parameterUnit":"m.s-1","parameterCategory":1,"la1":30.2991,"la2":30.254,"lo1":-89.0895,"lo2":-89.0444,"dy":0.0017,"dx":0.0017,"nx":28,"ny":28,"refTime":"2024-03-25T03:00:00:Z","depth":0,"parameterNumber":2,"parameterNumberName":"U-component_of_WINDS"},"data":[0,0,0,0,0,0,0,0,0,0,0,0,0,0,0,0,0,0,0,0,0,0,0,0,0,0,0,0,0,0,0,0,0,0,0,0,0,0,0,0,0,0,0,0,0,0,0,0,0,0,0,0,0,0,0,0,0,0,-6.5976,-6.5978,0,-6.6248,-6.6251,-6.6255,-6.637,-6.637,-6.6369,-6.6369,-6.6647,-6.6655,-6.6663,0,0,0,0,0,0,0,0,0,0,0,0,0,-6.5552,-6.5559,-6.5975,-6.5979,-6.5982,-6.6248,-6.6252,-6.6255,-6.637,-6.637,-6.6369,-6.6369,-6.6645,-6.6654,-6.6663,0,0,0,0,0,0,0,0,0,0,0,0,0,-6.5771,-6.5561,-6.5975,-6.6072,-6.6083,-6.6247,-6.6252,-6.6256,-6.6371,-6.637,-6.6369,-6.6368,-6.6642,-6.6653,-6.6665,-6.6752,0,0,-6.6701,-6.6706,0,0,0,0,0,0,0,0,-6.5758,-6.5786,-6.6054,-6.6065,-6.6078,-6.6275,-6.6204,-6.6423,-6.6371,-6.6261,-6.6369,-6.6368,-6.6524,-6.6545,-6.6598,-6.6765,-6.6777,-6.6702,-6.6709,-6.6714,-6.6717,0,0,0,0,0,0,0,-6.5743,-6.5775,-6.6083,-6.6058,-6.6073,-6.6101,-6.6131,-6.6246,-6.6393,-6.6271,-6.628,-6.6311,-6.653,-6.6586,-6.6605,-6.6781,-6.6701,-6.6712,-6.6719,-6.6724,-6.7033,-6.7034,0,0,0,0,0,0,-6.5712,-6.5762,-6.6075,-6.6092,-6.5913,-6.6109,-6.6143,-6.6212,-6.6392,-6.6419,-6.6311,-6.6315,-6.6567,-6.6591,-6.6616,-6.673,-6.6714,-6.6725,-6.6732,-6.7032,-6.7034,-6.7035,0,0,0,0,0,0,-6.5703,-6.5739,-6.6064,-6.5929,-6.5973,-6.6117,-6.6194,-6.6218,-6.6274,-6.6423,-6.6449,-6.6341,-6.6567,-6.6599,-6.6717,-6.6741,-6.673,-6.6741,-6.7031,-6.7033,-6.7034,-6.6958,0,0,0,0,0,0,-6.569,-6.5735,-6.577,-6.5929,-6.598,-6.6161,-6.6196,-6.6224,-6.6295,-6.6302,-6.6458,-6.6484,-6.6569,-6.6699,-6.6729,-6.6757,-6.675,-6.7029,-6.7032,-6.7034,-6.6959,-6.6957,-6.6955,0,0,0,0,0,-6.5674,-6.5738,-6.5771,-6.5809,-6.6027,-6.6162,-6.6191,-6.6288,-6.6296,-6.6332,-6.6427,-6.6479,-6.6733,-6.671,-6.6745,-6.6777,-6.7028,-6.7031,-6.7033,-6.696,-6.6958,-6.6955,0,0,0,0,0,0,-6.5578,-6.5761,-6.58,-6.5917,-6.6023,-6.6182,-6.6231,-6.6283,-6.6389,-6.6392,-6.6507,-6.6541,-6.665,-6.6725,-6.6696,-6.6871,-6.6885,-6.6894,-6.6817,-6.6816,-6.6814,-6.6794,-6.676,0,0,0,0,0,-6.557,-6.5666,-6.582,-6.5908,-6.596,-6.6085,-6.6148,-6.6214,-6.6328,-6.6374,-6.6478,-6.6587,-6.6691,-6.6758,-6.6863,-6.6971,-6.7006,-6.7009,-6.7007,-6.7005,-6.7012,-6.7074,-6.7077,-6.7043,-6.7043,-6.7043,0,0,-6.5556,-6.5667,-6.572,-6.5892,-6.5982,-6.6077,-6.6123,-6.6222,-6.6294,-6.6389,-6.6507,-6.6587,-6.6716,-6.6829,-6.6884,-6.6895,-6.7029,-6.7008,-6.7005,-6.7014,-6.7077,-6.708,-6.7083,-6.7045,-6.7045,-6.7044,0,0,-6.5577,-6.5672,-6.5755,-6.5844,-6.598,-6.6063,-6.6083,-6.6234,-6.629,-6.641,-6.6484,-6.657,-6.6748,-6.6837,-6.6905,-6.6958,-6.7009,-6.6989,-6.6979,-6.7038,-6.7041,-6.7044,-6.7062,-6.7068,-6.6996,-6.6995,-6.6995,0,-6.5542,-6.5689,-6.5791,-6.5887,-6.5959,-6.605,-6.6135,-6.6216,-6.6378,-6.6426,-6.6436,-6.6661,-6.6754,-6.6889,-6.6902,-6.6954,-6.698,-6.6972,-6.7032,-6.7036,-6.704,-6.7059,-6.7066,-6.6992,-6.6992,-6.6993,-6.6993,0,-6.5638,-6.5739,-6.579,-6.5945,-6.6023,-6.6112,-6.6227,-6.6294,-6.6352,-6.6434,-6.6554,-6.6669,-6.6798,-6.6835,-6.6893,-6.6978,-6.6981,-6.701,-6.7027,-6.7038,-6.7058,-6.7066,-6.6987,-6.6989,-6.699,-6.699,0,0,-6.5608,-6.5817,-6.5834,-6.5905,-6.6061,-6.614,-6.6233,-6.6359,-6.6414,-6.6522,-6.6603,-6.675,-6.6778,-6.6856,-6.6924,-6.6976,-6.701,-6.6999,-6.7004,-6.6997,-6.711,-6.7087,-6.7094,-6.7044,-6.7046,-6.7047,-6.7099,0,-6.5651,-6.5822,-6.5916,-6.6047,-6.6141,-6.6227,-6.6308,-6.6411,-6.6489,-6.658,-6.6666,-6.6769,-6.6798,-6.6845,-6.69,-6.6994,-6.7034,-6.6991,-6.712,-6.7123,-6.7085,-6.7104,-6.7081,-6.7124,-6.7107,-6.7109,-6.711,0,-6.5724,-6.5831,-6.5971,-6.6115,-6.6158,-6.6229,-6.6352,-6.6437,-6.6556,-6.6609,-6.6694,-6.6762,-6.6862,-6.6871,-6.701,-6.6979,-6.7037,-6.709,-6.7094,-6.711,-6.7117,-6.7121,-6.714,-6.7146,-6.7123,-6.7122,-6.7121,0,-6.5687,-6.5866,-6.5974,-6.6031,-6.6202,-6.625,-6.6323,-6.6441,-6.651,-6.6617,-6.6663,-6.678,-6.6844,-6.6932,-6.7029,-6.7026,-6.7159,-6.7176,-6.7206,-6.7203,-6.723,-6.7227,-6.7259,-6.7266,-6.7266,-6.7266,-6.7266,0,-6.5726,-6.5808,-6.5959,-6.6025,-6.6119,-6.6226,-6.6316,-6.6396,-6.65,-6.6582,-6.6664,-6.6739,-6.6863,-6.6953,-6.7029,-6.7133,-6.7161,-6.7207,-6.7226,-6.72,-6.7194,-6.7239,-6.7239,-6.7268,-6.7268,-6.7267,-6.7267,0,-6.5701,-6.5806,-6.5928,-6.6079,-6.6119,-6.6181,-6.6311,-6.6377,-6.6459,-6.6562,-6.6592,-6.672,-6.6831,-6.6936,-6.7084,-6.7136,-6.7239,-6.7265,-6.7199,-6.721,-6.7234,-6.723,-6.7297,-6.7311,-6.7307,-6.7307,-6.7307,0,-6.5718,-6.5784,-6.5941,-6.6002,-6.6074,-6.6171,-6.6242,-6.6349,-6.6419,-6.6558,-6.6608,-6.6724,-6.6823,-6.6996,-6.7102,-6.7215,-6.7244,-6.726,-6.7262,-6.7233,-6.7244,-6.7239,-6.7246,-6.7257,-6.7257,-6.7256,-6.7256,0,-6.5738,-6.5786,-6.5886,-6.6003,-6.6085,-6.6183,-6.6283,-6.6328,-6.6454,-6.6529,-6.6643,-6.6719,-6.687,-6.6984,-6.7109,-6.7185,-6.7241,-6.7254,-6.7267,-6.7241,-6.72,-6.7223,-6.7193,-6.7252,-6.7253,-6.7253,-6.7253,-6.7253,-6.5735,-6.5797,-6.5917,-6.6025,-6.6111,-6.6203,-6.6272,-6.6363,-6.646,-6.6591,-6.6647,-6.6762,-6.6879,-6.7053,-6.7127,-6.7218,-6.7231,-6.725,-6.7255,-6.7258,-6.7252,-6.7185,-6.7241,-6.7241,-6.7241,-6.7242,-6.7242,0,-6.5759,-6.584,-6.5938,-6.6075,-6.616,-6.6205,-6.6318,-6.6386,-6.6486,-6.6589,-6.6685,-6.6815,-6.6926,-6.704,-6.7158,-6.7209,-6.7237,-6.7236,-6.7233,-6.725,-6.7234,-6.7211,-6.7211,-6.7211,-6.7211,-6.7211,-6.7211,-6.7211,-6.5781,-6.5887,-6.5949,-6.6099,-6.618,-6.6294,-6.6354,-6.6438,-6.6522,-6.6663,-6.6756,-6.683,-6.6938,-6.7064,-6.7167,-6.7198,-6.7237,-6.7228,-6.7266,-6.7249,-6.7251,-6.7253,-6.7232,-6.7236,-6.7236,-6.7275,-6.7276,-6.7276]},{"header":{"parameterUnit":"m.s-1","parameterCategory":1,"la1":30.2991,"la2":30.254,"lo1":-89.0895,"lo2":-89.0444,"dy":0.0017,"dx":0.0017,"nx":28,"ny":28,"refTime":"2024-03-25T03:00:00:Z","depth":0,"parameterNumber":3,"parameterNumberName":"V-component_of_WINDS"},"data":[0,0,0,0,0,0,0,0,0,0,0,0,0,0,0,0,0,0,0,0,0,0,0,0,0,0,0,0,0,0,0,0,0,0,0,0,0,0,0,0,0,0,0,0,0,0,0,0,0,0,0,0,0,0,0,0,0,0,6.3602,6.3603,0,6.3665,6.3666,6.3667,6.3643,6.3642,6.364,6.3639,6.3702,6.3705,6.3708,0,0,0,0,0,0,0,0,0,0,0,0,0,6.3461,6.3463,6.3602,6.3603,6.3604,6.3665,6.3666,6.3667,6.3643,6.3642,6.364,6.3638,6.3701,6.3704,6.3708,0,0,0,0,0,0,0,0,0,0,0,0,0,6.3523,6.3464,6.3602,6.36,6.36,6.3665,6.3666,6.3667,6.3644,6.3642,6.364,6.3638,6.3699,6.3704,6.3708,6.3779,0,0,6.3722,6.3724,0,0,0,0,0,0,0,0,6.3519,6.3528,6.3599,6.36,6.3601,6.3644,6.3639,6.3705,6.3644,6.3627,6.3639,6.3637,6.3684,6.369,6.3706,6.3782,6.3785,6.3722,6.3725,6.3727,6.3728,0,0,0,0,0,0,0,6.3515,6.3525,6.3627,6.36,6.3601,6.3595,6.3601,6.3651,6.3667,6.3629,6.3627,6.3635,6.3684,6.3702,6.3708,6.3785,6.3722,6.3726,6.3729,6.3731,6.3924,6.3927,0,0,0,0,0,0,6.3511,6.3522,6.3625,6.3629,6.3554,6.3599,6.3607,6.3632,6.3666,6.3669,6.3637,6.3634,6.3695,6.3702,6.371,6.3797,6.3727,6.3731,6.3734,6.3922,6.3925,6.3927,0,0,0,0,0,0,6.3508,6.352,6.3623,6.3575,6.3588,6.3604,6.3633,6.3635,6.3653,6.3672,6.3675,6.3652,6.3694,6.3703,6.3763,6.3799,6.3733,6.3737,6.3919,6.3923,6.3926,6.3971,0,0,0,0,0,0,6.3504,6.3519,6.3547,6.3576,6.359,6.3675,6.3635,6.3638,6.3661,6.3657,6.3688,6.3691,6.3693,6.3756,6.3767,6.3804,6.3741,6.3916,6.3921,6.3925,6.3966,6.3975,6.3983,0,0,0,0,0,6.3499,6.3556,6.3548,6.3561,6.3625,6.3677,6.3685,6.3688,6.3664,6.3692,6.3704,6.369,6.3792,6.3762,6.3774,6.3813,6.3914,6.3919,6.3925,6.3962,6.3974,6.3983,0,0,0,0,0,0,6.353,6.356,6.3551,6.362,6.3646,6.3673,6.3708,6.3699,6.3733,6.3728,6.3728,6.3735,6.3797,6.381,6.3776,6.3884,6.3849,6.3857,6.3874,6.3885,6.3893,6.389,6.3745,0,0,0,0,0,6.3544,6.3585,6.3608,6.3666,6.368,6.3692,6.3715,6.3714,6.3741,6.3752,6.3769,6.3796,6.3834,6.386,6.3896,6.3967,6.3974,6.3999,6.4008,6.4015,6.4023,6.4064,6.4076,6.3945,6.3945,6.3945,0,0,6.3575,6.3597,6.3622,6.3673,6.3694,6.3736,6.3702,6.3747,6.3779,6.3759,6.3817,6.383,6.386,6.3926,6.3956,6.3939,6.406,6.4022,6.4027,6.4032,6.4071,6.4083,6.4094,6.3949,6.3948,6.3948,0,0,6.3654,6.3673,6.3725,6.3747,6.3778,6.3786,6.3798,6.3827,6.3835,6.3893,6.388,6.3917,6.3982,6.4005,6.4025,6.4112,6.4101,6.4123,6.417,6.421,6.422,6.4229,6.4263,6.4275,6.4131,6.4131,6.4131,0,6.3689,6.3753,6.3753,6.38,6.3824,6.3808,6.3861,6.3881,6.3923,6.3939,6.3919,6.4003,6.4021,6.4094,6.4115,6.4131,6.4146,6.4122,6.4218,6.4228,6.4236,6.4269,6.4281,6.4134,6.4133,6.4133,6.4133,0,6.3795,6.3839,6.3877,6.3919,6.3946,6.3996,6.4004,6.4031,6.4027,6.4037,6.4097,6.4118,6.416,6.4176,6.4172,6.4248,6.4237,6.4218,6.4184,6.4252,6.4282,6.4294,6.4138,6.4137,6.4136,6.4135,0,0,6.3897,6.3939,6.3953,6.3973,6.4007,6.4041,6.4089,6.4131,6.4155,6.4183,6.4226,6.4282,6.4265,6.4287,6.4285,6.432,6.4391,6.4297,6.4297,6.4316,6.4479,6.4496,6.451,6.4382,6.4385,6.4387,6.4478,0,6.3981,6.4069,6.407,6.415,6.4192,6.4178,6.422,6.4246,6.4255,6.4292,6.4302,6.4343,6.4316,6.433,6.4363,6.4376,6.4424,6.4368,6.4423,6.4425,6.442,6.4526,6.4544,6.4629,6.4489,6.4491,6.4492,0,6.4092,6.4126,6.4211,6.424,6.4257,6.4296,6.4335,6.4369,6.4397,6.4402,6.4428,6.4421,6.4471,6.4433,6.4503,6.4465,6.4487,6.4496,6.4499,6.4507,6.4465,6.454,6.4655,6.467,6.4511,6.4509,6.4508,0,6.4162,6.4228,6.4288,6.4305,6.434,6.4368,6.4383,6.4409,6.4434,6.4467,6.4484,6.4521,6.4543,6.4572,6.4577,6.4548,6.4648,6.4609,6.4654,6.4655,6.4679,6.4678,6.4803,6.4687,6.4687,6.4687,6.4686,0,6.4258,6.4311,6.4321,6.4358,6.4417,6.4418,6.4476,6.4489,6.4513,6.4552,6.454,6.4577,6.4579,6.4617,6.462,6.4679,6.4687,6.4694,6.4694,6.4697,6.4697,6.4714,6.4709,6.469,6.4689,6.4689,6.4688,0,6.4348,6.4356,6.4421,6.4449,6.4457,6.45,6.4523,6.4559,6.4566,6.4617,6.4629,6.4642,6.4686,6.4692,6.4743,6.4745,6.4817,6.481,6.4809,6.4809,6.4855,6.4852,6.4999,6.5019,6.4886,6.4887,6.4888,0,6.4411,6.4452,6.4484,6.451,6.4528,6.4569,6.4595,6.4596,6.4624,6.4659,6.4691,6.4734,6.4769,6.4841,6.4855,6.4894,6.489,6.4938,6.4896,6.4898,6.4895,6.4894,6.4899,6.4948,6.4949,6.495,6.4951,0,6.4523,6.4525,6.4563,6.4603,6.4634,6.4665,6.4695,6.4716,6.4721,6.4753,6.4799,6.4826,6.4879,6.4923,6.4962,6.4977,6.4966,6.4964,6.4977,6.4982,6.4981,6.4986,6.4835,6.4962,6.4961,6.496,6.4959,6.4959,6.4603,6.464,6.4669,6.4712,6.4734,6.4762,6.4798,6.481,6.4849,6.4893,6.489,6.4941,6.4969,6.502,6.5038,6.5078,6.5062,6.5081,6.5086,6.5092,6.5098,6.4972,6.5085,6.5084,6.5084,6.5084,6.5084,0,6.4717,6.4735,6.4774,6.4817,6.4851,6.4836,6.4868,6.4898,6.4943,6.497,6.5005,6.5058,6.51,6.5117,6.5158,6.5187,6.5183,6.5198,6.5198,6.5203,6.5108,6.5094,6.5201,6.5201,6.5201,6.5201,6.5201,6.5201,6.4781,6.4843,6.4848,6.4921,6.4938,6.4989,6.5009,6.5034,6.5056,6.5116,6.5152,6.5162,6.5185,6.5228,6.5267,6.5271,6.5288,6.5306,6.5308,6.522,6.5209,6.5198,6.5185,6.5309,6.5309,6.54,6.5401,6.5401]}]]